Time,TemperatureF,DewpointF,PressureIn,WindDirection,WindDirectionDegrees,WindSpeedMPH,WindSpeedGustMPH,Humidity,HourlyPrecipIn,Conditions,Clouds,dailyrainin,SoftwareType,DateUTC
2013-02-25 00:00:00,32.8,23.8,30.01,North,360,0.0,12.0,69,0.00,,,0.00,VWS V14.01,2013-02-25 05:00:00,
2013-02-25 00:01:00,32.8,23.4,30.01,North,360,0.0,12.0,68,0.00,,,0.00,VWS V14.01,2013-02-25 05:01:00,
2013-02-25 00:02:00,32.8,23.4,30.01,North,360,0.0,12.0,68,0.00,,,0.00,VWS V14.01,2013-02-25 05:02:00,
2013-02-25 00:07:00,32.9,23.5,30.01,North,360,0.0,12.0,68,0.00,,,0.00,VWS V14.01,2013-02-25 05:07:00,
2013-02-25 00:12:00,32.7,23.7,30.01,North,360,1.0,12.0,69,0.00,,,0.00,VWS V14.01,2013-02-25 05:12:00,
2013-02-25 00:17:00,32.4,23.4,30.00,North,360,0.0,12.0,69,0.00,,,0.00,VWS V14.01,2013-02-25 05:17:00,
2013-02-25 00:22:00,31.8,22.5,30.00,North,360,0.0,12.0,68,0.00,,,0.00,VWS V14.01,2013-02-25 05:22:00,
2013-02-25 00:27:00,31.3,22.3,30.00,North,360,0.0,12.0,69,0.00,,,0.00,VWS V14.01,2013-02-25 05:27:00,
2013-02-25 00:32:00,31.0,21.7,30.01,North,360,0.0,12.0,68,0.00,,,0.00,VWS V14.01,2013-02-25 05:32:00,
2013-02-25 00:37:00,30.9,21.6,30.01,North,360,0.0,12.0,68,0.00,,,0.00,VWS V14.01,2013-02-25 05:37:00,
2013-02-25 00:43:00,30.7,21.4,30.01,North,360,1.0,12.0,68,0.00,,,0.00,VWS V14.01,2013-02-25 05:43:00,
2013-02-25 00:48:00,30.6,21.6,30.01,North,360,0.0,12.0,69,0.00,,,0.00,VWS V14.01,2013-02-25 05:48:00,
2013-02-25 00:53:00,30.3,20.7,30.01,North,360,0.0,12.0,67,0.00,,,0.00,VWS V14.01,2013-02-25 05:53:00,
2013-02-25 00:58:00,30.3,21.7,30.01,North,360,0.0,12.0,70,0.00,,,0.00,VWS V14.01,2013-02-25 05:58:00,
2013-02-25 01:03:00,30.1,21.9,30.01,North,360,0.0,12.0,71,0.00,,,0.00,VWS V14.01,2013-02-25 06:03:00,
2013-02-25 01:08:00,30.0,21.4,30.01,North,360,0.0,12.0,70,0.00,,,0.00,VWS V14.01,2013-02-25 06:08:00,
2013-02-25 01:13:00,29.7,21.1,30.01,North,360,0.0,12.0,70,0.00,,,0.00,VWS V14.01,2013-02-25 06:13:00,
2013-02-25 01:18:00,29.5,20.9,30.00,North,360,0.0,12.0,70,0.00,,,0.00,VWS V14.01,2013-02-25 06:18:00,
2013-02-25 01:23:00,29.4,20.8,30.00,North,360,0.0,12.0,70,0.00,,,0.00,VWS V14.01,2013-02-25 06:23:00,
2013-02-25 01:28:00,29.5,21.3,30.00,North,360,0.0,12.0,71,0.00,,,0.00,VWS V14.01,2013-02-25 06:28:00,
2013-02-25 01:33:00,29.5,21.9,30.00,North,360,0.0,12.0,73,0.00,,,0.00,VWS V14.01,2013-02-25 06:33:00,
2013-02-25 01:38:00,29.4,21.5,30.00,North,360,0.0,12.0,72,0.00,,,0.00,VWS V14.01,2013-02-25 06:38:00,
2013-02-25 01:43:00,29.4,21.5,30.00,North,360,0.0,12.0,72,0.00,,,0.00,VWS V14.01,2013-02-25 06:43:00,
2013-02-25 01:48:00,29.3,21.1,30.01,North,360,0.0,12.0,71,0.00,,,0.00,VWS V14.01,2013-02-25 06:48:00,
2013-02-25 01:53:00,29.3,21.1,30.01,North,360,0.0,12.0,71,0.00,,,0.00,VWS V14.01,2013-02-25 06:53:00,
2013-02-25 01:58:00,29.3,21.7,30.01,North,360,0.0,12.0,73,0.00,,,0.00,VWS V14.01,2013-02-25 06:58:00,
2013-02-25 02:03:00,29.4,21.8,30.02,North,360,0.0,12.0,73,0.00,,,0.00,VWS V14.01,2013-02-25 07:03:00,
2013-02-25 02:08:00,29.3,21.7,30.02,North,360,0.0,12.0,73,0.00,,,0.00,VWS V14.01,2013-02-25 07:08:00,
2013-02-25 02:13:00,29.3,21.7,30.02,North,360,0.0,12.0,73,0.00,,,0.00,VWS V14.01,2013-02-25 07:13:00,
2013-02-25 02:18:00,29.4,22.1,30.00,North,360,0.0,12.0,74,0.00,,,0.00,VWS V14.01,2013-02-25 07:18:00,
2013-02-25 02:24:00,29.4,22.5,30.00,North,360,0.0,12.0,75,0.00,,,0.00,VWS V14.01,2013-02-25 07:24:00,
2013-02-25 02:29:00,29.3,22.1,30.00,North,360,0.0,12.0,74,0.00,,,0.00,VWS V14.01,2013-02-25 07:29:00,
2013-02-25 02:34:00,29.3,21.7,29.99,North,360,0.0,12.0,73,0.00,,,0.00,VWS V14.01,2013-02-25 07:34:00,
2013-02-25 02:39:00,29.4,22.1,29.99,North,360,0.0,12.0,74,0.00,,,0.00,VWS V14.01,2013-02-25 07:39:00,
2013-02-25 02:44:00,29.4,21.8,29.99,North,360,0.0,12.0,73,0.00,,,0.00,VWS V14.01,2013-02-25 07:44:00,
2013-02-25 02:49:00,29.8,21.6,30.00,North,360,0.0,12.0,71,0.00,,,0.00,VWS V14.01,2013-02-25 07:49:00,
2013-02-25 02:54:00,30.3,22.0,30.00,North,360,0.0,12.0,71,0.00,,,0.00,VWS V14.01,2013-02-25 07:54:00,
2013-02-25 02:59:00,30.4,22.5,30.00,North,360,1.0,12.0,72,0.00,,,0.00,VWS V14.01,2013-02-25 07:59:00,
2013-02-25 03:04:00,30.4,22.1,30.00,North,360,0.0,12.0,71,0.00,,,0.00,VWS V14.01,2013-02-25 08:04:00,
2013-02-25 03:09:00,30.4,22.5,30.00,North,360,0.0,12.0,72,0.00,,,0.00,VWS V14.01,2013-02-25 08:09:00,
2013-02-25 03:14:00,30.6,21.6,30.00,North,360,0.0,12.0,69,0.00,,,0.00,VWS V14.01,2013-02-25 08:14:00,
2013-02-25 03:19:00,30.7,22.1,29.98,North,360,0.0,12.0,70,0.00,,,0.00,VWS V14.01,2013-02-25 08:19:00,
2013-02-25 03:24:00,30.6,21.6,29.98,North,360,0.0,12.0,69,0.00,,,0.00,VWS V14.01,2013-02-25 08:24:00,
2013-02-25 03:29:00,30.7,21.8,29.98,North,360,0.0,12.0,69,0.00,,,0.00,VWS V14.01,2013-02-25 08:29:00,
2013-02-25 03:34:00,30.9,22.3,30.00,North,360,0.0,12.0,70,0.00,,,0.00,VWS V14.01,2013-02-25 08:34:00,
2013-02-25 03:39:00,31.0,22.0,30.00,North,360,0.0,12.0,69,0.00,,,0.00,VWS V14.01,2013-02-25 08:39:00,
2013-02-25 03:44:00,30.9,21.9,30.00,North,360,0.0,12.0,69,0.00,,,0.00,VWS V14.01,2013-02-25 08:44:00,
2013-02-25 03:50:00,30.7,21.1,29.98,North,360,0.0,12.0,67,0.00,,,0.00,VWS V14.01,2013-02-25 08:50:00,
2013-02-25 03:55:00,30.7,21.8,29.98,North,360,0.0,12.0,69,0.00,,,0.00,VWS V14.01,2013-02-25 08:55:00,
2013-02-25 04:00:00,30.7,21.1,29.98,North,360,0.0,12.0,67,0.00,,,0.00,VWS V14.01,2013-02-25 09:00:00,
2013-02-25 04:05:00,30.7,21.8,29.99,North,360,0.0,12.0,69,0.00,,,0.00,VWS V14.01,2013-02-25 09:05:00,
2013-02-25 04:10:00,30.9,21.9,29.99,NE,40,0.0,12.0,69,0.00,,,0.00,VWS V14.01,2013-02-25 09:10:00,
2013-02-25 04:15:00,31.0,22.0,29.99,NE,40,0.0,12.0,69,0.00,,,0.00,VWS V14.01,2013-02-25 09:15:00,
2013-02-25 04:20:00,31.2,21.9,29.99,NE,40,0.0,12.0,68,0.00,,,0.00,VWS V14.01,2013-02-25 09:20:00,
2013-02-25 04:25:00,31.3,21.6,29.99,NE,40,0.0,12.0,67,0.00,,,0.00,VWS V14.01,2013-02-25 09:25:00,
2013-02-25 04:30:00,31.5,22.5,29.99,NE,40,1.0,12.0,69,0.00,,,0.00,VWS V14.01,2013-02-25 09:30:00,
2013-02-25 04:35:00,31.5,22.2,29.98,NE,40,0.0,12.0,68,0.00,,,0.00,VWS V14.01,2013-02-25 09:35:00,
2013-02-25 04:40:00,31.6,22.3,29.98,NE,44,0.0,12.0,68,0.00,,,0.00,VWS V14.01,2013-02-25 09:40:00,
2013-02-25 04:45:00,32.1,20.9,29.98,NE,44,2.0,12.0,63,0.00,,,0.00,VWS V14.01,2013-02-25 09:45:00,
2013-02-25 04:50:00,32.7,20.8,29.99,NE,44,0.0,12.0,61,0.00,,,0.00,VWS V14.01,2013-02-25 09:50:00,
2013-02-25 04:55:00,32.9,20.9,29.99,NE,36,0.0,12.0,61,0.00,,,0.00,VWS V14.01,2013-02-25 09:55:00,
2013-02-25 05:00:00,33.1,21.9,29.99,NE,36,0.0,12.0,63,0.00,,,0.00,VWS V14.01,2013-02-25 10:00:00,
2013-02-25 05:05:00,33.2,21.6,29.98,NNE,24,0.0,12.0,62,0.00,,,0.00,VWS V14.01,2013-02-25 10:05:00,
2013-02-25 05:11:00,33.5,21.5,29.98,NNE,12,1.0,12.0,61,0.00,,,0.00,VWS V14.01,2013-02-25 10:11:00,
2013-02-25 05:16:00,33.8,21.4,29.98,East,86,1.0,12.0,60,0.00,,,0.00,VWS V14.01,2013-02-25 10:16:00,
2013-02-25 05:21:00,34.0,22.7,29.98,ENE,73,0.0,12.0,63,0.00,,,0.00,VWS V14.01,2013-02-25 10:21:00,
2013-02-25 05:26:00,34.0,21.6,29.98,North,9,0.0,12.0,60,0.00,,,0.00,VWS V14.01,2013-02-25 10:26:00,
2013-02-25 05:31:00,34.1,20.5,29.98,North,5,6.0,12.0,57,0.00,,,0.00,VWS V14.01,2013-02-25 10:31:00,
2013-02-25 05:36:00,34.4,20.8,29.98,NE,46,0.0,12.0,57,0.00,,,0.00,VWS V14.01,2013-02-25 10:36:00,
2013-02-25 05:41:00,34.4,20.8,29.98,NNE,18,0.0,12.0,57,0.00,,,0.00,VWS V14.01,2013-02-25 10:41:00,
2013-02-25 05:46:00,34.4,21.2,29.98,WNW,289,0.0,12.0,58,0.00,,,0.00,VWS V14.01,2013-02-25 10:46:00,
2013-02-25 05:51:00,34.4,20.8,29.99,WNW,289,0.0,12.0,57,0.00,,,0.00,VWS V14.01,2013-02-25 10:51:00,
2013-02-25 05:56:00,34.4,19.9,29.99,East,90,0.0,12.0,55,0.00,,,0.00,VWS V14.01,2013-02-25 10:56:00,
2013-02-25 06:01:00,34.4,21.2,29.99,NNE,25,1.0,12.0,58,0.00,,,0.00,VWS V14.01,2013-02-25 11:01:00,
2013-02-25 06:06:00,34.4,19.9,29.98,NNE,29,0.0,12.0,55,0.00,,,0.00,VWS V14.01,2013-02-25 11:06:00,
2013-02-25 06:11:00,34.6,21.0,29.98,North,11,0.0,12.0,57,0.00,,,0.00,VWS V14.01,2013-02-25 11:11:00,
2013-02-25 06:16:00,34.7,19.8,29.98,West,279,0.0,12.0,54,0.00,,,0.00,VWS V14.01,2013-02-25 11:16:00,
2013-02-25 06:21:00,34.9,20.8,29.99,South,185,0.0,12.0,56,0.00,,,0.00,VWS V14.01,2013-02-25 11:21:00,
2013-02-25 06:26:00,34.9,20.0,29.99,South,184,0.0,12.0,54,0.00,,,0.00,VWS V14.01,2013-02-25 11:26:00,
2013-02-25 06:31:00,34.9,20.0,29.99,South,184,0.0,12.0,54,0.00,,,0.00,VWS V14.01,2013-02-25 11:31:00,
2013-02-25 06:36:00,34.7,20.6,30.00,ESE,123,0.0,12.0,56,0.00,,,0.00,VWS V14.01,2013-02-25 11:36:00,
2013-02-25 06:41:00,34.6,20.1,30.00,ESE,116,0.0,12.0,55,0.00,,,0.00,VWS V14.01,2013-02-25 11:41:00,
2013-02-25 06:46:00,34.4,20.3,30.00,ENE,72,1.0,12.0,56,0.00,,,0.00,VWS V14.01,2013-02-25 11:46:00,
2013-02-25 06:52:00,34.4,20.3,30.00,East,98,0.0,12.0,56,0.00,,,0.00,VWS V14.01,2013-02-25 11:52:00,
2013-02-25 06:57:00,34.3,20.7,30.00,East,95,1.0,12.0,57,0.00,,,0.00,VWS V14.01,2013-02-25 11:57:00,
2013-02-25 07:02:00,34.1,21.7,29.99,NE,35,0.0,12.0,60,0.00,,,0.00,VWS V14.01,2013-02-25 12:02:00,
2013-02-25 07:07:00,34.1,20.5,29.99,NNE,30,0.0,12.0,57,0.00,,,0.00,VWS V14.01,2013-02-25 12:07:00,
2013-02-25 07:12:00,34.1,20.1,29.99,NE,40,0.0,12.0,56,0.00,,,0.00,VWS V14.01,2013-02-25 12:12:00,
2013-02-25 07:17:00,34.1,20.5,30.01,West,266,0.0,12.0,57,0.00,,,0.00,VWS V14.01,2013-02-25 12:17:00,
2013-02-25 07:22:00,34.3,20.7,30.01,NE,35,0.0,12.0,57,0.00,,,0.00,VWS V14.01,2013-02-25 12:22:00,
2013-02-25 07:27:00,34.4,19.5,30.01,NE,54,2.0,12.0,54,0.00,,,0.00,VWS V14.01,2013-02-25 12:27:00,
2013-02-25 07:32:00,34.6,20.1,30.02,SW,219,1.0,12.0,55,0.00,,,0.00,VWS V14.01,2013-02-25 12:32:00,
2013-02-25 07:37:00,34.9,20.0,30.02,West,273,1.0,12.0,54,0.00,,,0.00,VWS V14.01,2013-02-25 12:37:00,
2013-02-25 07:42:00,35.0,20.0,30.02,NW,316,0.0,12.0,54,0.00,,,0.00,VWS V14.01,2013-02-25 12:42:00,
2013-02-25 07:47:00,35.2,20.2,30.02,North,349,0.0,12.0,54,0.00,,,0.00,VWS V14.01,2013-02-25 12:47:00,
2013-02-25 07:53:00,35.2,20.2,30.02,NNW,340,2.0,12.0,54,0.00,,,0.00,VWS V14.01,2013-02-25 12:53:00,
2013-02-25 07:58:00,35.5,20.5,30.02,NNE,25,0.0,12.0,54,0.00,,,0.00,VWS V14.01,2013-02-25 12:58:00,
2013-02-25 08:03:00,35.5,21.0,30.03,NNE,22,2.0,12.0,55,0.00,,,0.00,VWS V14.01,2013-02-25 13:03:00,
2013-02-25 08:08:00,35.6,20.2,30.03,NNW,340,0.0,12.0,53,0.00,,,0.00,VWS V14.01,2013-02-25 13:08:00,
2013-02-25 08:13:00,35.8,20.4,30.03,NNW,337,0.0,12.0,53,0.00,,,0.00,VWS V14.01,2013-02-25 13:13:00,
2013-02-25 08:19:00,36.0,21.0,30.03,NNW,337,0.0,12.0,54,0.00,,,0.00,VWS V14.01,2013-02-25 13:19:00,
2013-02-25 08:24:00,36.2,20.3,30.03,NNW,346,0.0,12.0,52,0.00,,,0.00,VWS V14.01,2013-02-25 13:24:00,
2013-02-25 08:29:00,36.3,20.4,30.03,NNW,346,1.0,12.0,52,0.00,,,0.00,VWS V14.01,2013-02-25 13:29:00,
2013-02-25 08:34:00,36.5,20.6,30.02,NW,317,0.0,12.0,52,0.00,,,0.00,VWS V14.01,2013-02-25 13:34:00,
2013-02-25 08:39:00,36.6,20.2,30.02,NNE,17,0.0,12.0,51,0.00,,,0.00,VWS V14.01,2013-02-25 13:39:00,
2013-02-25 08:44:00,36.6,20.2,30.02,NNW,339,0.0,12.0,51,0.00,,,0.00,VWS V14.01,2013-02-25 13:44:00,
2013-02-25 08:50:00,36.6,20.2,30.02,NE,55,0.0,12.0,51,0.00,,,0.00,VWS V14.01,2013-02-25 13:50:00,
2013-02-25 08:55:00,36.6,20.2,30.02,NE,44,1.0,12.0,51,0.00,,,0.00,VWS V14.01,2013-02-25 13:55:00,
2013-02-25 09:00:00,36.6,20.2,30.02,ENE,59,1.0,12.0,51,0.00,,,0.00,VWS V14.01,2013-02-25 14:00:00,
2013-02-25 09:05:00,36.8,20.8,30.02,NNE,25,0.0,12.0,52,0.00,,,0.00,VWS V14.01,2013-02-25 14:05:00,
2013-02-25 09:10:00,36.9,20.9,30.02,NW,325,1.0,12.0,52,0.00,,,0.00,VWS V14.01,2013-02-25 14:10:00,
2013-02-25 09:16:00,37.0,20.6,30.02,NW,325,0.0,12.0,51,0.00,,,0.00,VWS V14.01,2013-02-25 14:16:00,
2013-02-25 09:21:00,37.2,20.3,30.03,NW,311,0.0,12.0,50,0.00,,,0.00,VWS V14.01,2013-02-25 14:21:00,
2013-02-25 09:26:00,37.3,20.4,30.03,NNE,15,3.0,12.0,50,0.00,,,0.00,VWS V14.01,2013-02-25 14:26:00,
2013-02-25 09:31:00,37.5,21.5,30.03,North,360,0.0,12.0,52,0.00,,,0.00,VWS V14.01,2013-02-25 14:31:00,
2013-02-25 09:36:00,37.6,20.7,30.02,SSE,152,0.0,12.0,50,0.00,,,0.00,VWS V14.01,2013-02-25 14:36:00,
2013-02-25 09:41:00,37.9,21.4,30.02,NW,319,1.0,12.0,51,0.00,,,0.00,VWS V14.01,2013-02-25 14:41:00,
2013-02-25 09:46:00,38.0,21.0,30.02,SSW,194,0.0,12.0,50,0.00,,,0.00,VWS V14.01,2013-02-25 14:46:00,
2013-02-25 09:51:00,38.2,21.2,30.02,NW,306,0.0,12.0,50,0.00,,,0.00,VWS V14.01,2013-02-25 14:51:00,
2013-02-25 09:56:00,38.3,21.3,30.02,NNE,28,1.0,12.0,50,0.00,,,0.00,VWS V14.01,2013-02-25 14:56:00,
2013-02-25 10:02:00,38.5,22.4,30.02,NNE,17,0.0,12.0,52,0.00,,,0.00,VWS V14.01,2013-02-25 15:02:00,
2013-02-25 10:07:00,38.5,21.5,30.02,North,5,1.0,12.0,50,0.00,,,0.00,VWS V14.01,2013-02-25 15:07:00,
2013-02-25 10:12:00,38.5,21.5,30.02,NE,49,4.0,12.0,50,0.00,,,0.00,VWS V14.01,2013-02-25 15:12:00,
2013-02-25 10:17:00,38.5,22.0,30.03,NE,45,0.0,12.0,51,0.00,,,0.00,VWS V14.01,2013-02-25 15:17:00,
2013-02-25 10:22:00,38.9,21.9,30.03,NE,47,0.0,12.0,50,0.00,,,0.00,VWS V14.01,2013-02-25 15:22:00,
2013-02-25 10:27:00,39.1,21.6,30.03,NE,44,3.0,12.0,49,0.00,,,0.00,VWS V14.01,2013-02-25 15:27:00,
2013-02-25 10:32:00,39.2,22.1,30.03,NE,44,0.0,12.0,50,0.00,,,0.00,VWS V14.01,2013-02-25 15:32:00,
2013-02-25 10:37:00,39.5,22.4,30.03,NNW,338,1.0,12.0,50,0.00,,,0.00,VWS V14.01,2013-02-25 15:37:00,
2013-02-25 10:42:00,39.8,22.7,30.03,NNW,337,1.0,12.0,50,0.00,,,0.00,VWS V14.01,2013-02-25 15:42:00,
2013-02-25 10:47:00,40.1,22.5,30.03,NNW,338,1.0,12.0,49,0.00,,,0.00,VWS V14.01,2013-02-25 15:47:00,
2013-02-25 10:52:00,40.5,22.4,30.03,North,349,0.0,12.0,48,0.00,,,0.00,VWS V14.01,2013-02-25 15:52:00,
2013-02-25 10:58:00,40.8,23.6,30.03,NNE,31,1.0,12.0,50,0.00,,,0.00,VWS V14.01,2013-02-25 15:58:00,
2013-02-25 11:03:00,41.1,22.4,30.03,West,277,0.0,12.0,47,0.00,,,0.00,VWS V14.01,2013-02-25 16:03:00,
2013-02-25 11:08:00,41.5,23.3,30.03,NE,34,1.0,12.0,48,0.00,,,0.00,VWS V14.01,2013-02-25 16:08:00,
2013-02-25 11:13:00,41.8,22.5,30.03,West,281,0.0,12.0,46,0.00,,,0.00,VWS V14.01,2013-02-25 16:13:00,
2013-02-25 11:18:00,42.2,22.9,30.02,NW,317,1.0,12.0,46,0.00,,,0.00,VWS V14.01,2013-02-25 16:18:00,
2013-02-25 11:23:00,42.6,23.3,30.02,NW,317,1.0,12.0,46,0.00,,,0.00,VWS V14.01,2013-02-25 16:23:00,
2013-02-25 11:28:00,42.5,23.7,30.02,NW,317,0.0,12.0,47,0.00,,,0.00,VWS V14.01,2013-02-25 16:28:00,
2013-02-25 11:34:00,42.8,24.5,30.01,NW,317,0.0,12.0,48,0.00,,,0.00,VWS V14.01,2013-02-25 16:34:00,
2013-02-25 11:39:00,42.9,24.1,30.01,NW,317,0.0,12.0,47,0.00,,,0.00,VWS V14.01,2013-02-25 16:39:00,
2013-02-25 11:44:00,43.3,23.9,30.01,NW,317,0.0,12.0,46,0.00,,,0.00,VWS V14.01,2013-02-25 16:44:00,
2013-02-25 11:49:00,43.6,24.7,30.01,WNW,298,1.0,12.0,47,0.00,,,0.00,VWS V14.01,2013-02-25 16:49:00,
2013-02-25 11:54:00,44.1,24.7,30.01,WNW,298,0.0,12.0,46,0.00,,,0.00,VWS V14.01,2013-02-25 16:54:00,
2013-02-25 11:59:00,44.3,24.3,30.01,NW,315,3.0,12.0,45,0.00,,,0.00,VWS V14.01,2013-02-25 16:59:00,
2013-02-25 12:04:00,44.3,23.8,30.00,WNW,283,0.0,12.0,44,0.00,,,0.00,VWS V14.01,2013-02-25 17:04:00,
2013-02-25 12:09:00,44.6,24.0,30.00,SW,223,1.0,12.0,44,0.00,,,0.00,VWS V14.01,2013-02-25 17:09:00,
2013-02-25 12:14:00,44.8,23.7,30.00,NNW,340,0.0,12.0,43,0.00,,,0.00,VWS V14.01,2013-02-25 17:14:00,
2013-02-25 12:19:00,44.9,23.8,30.00,NNW,340,0.0,12.0,43,0.00,,,0.00,VWS V14.01,2013-02-25 17:19:00,
2013-02-25 12:24:00,44.6,23.5,30.00,South,182,2.0,12.0,43,0.00,,,0.00,VWS V14.01,2013-02-25 17:24:00,
2013-02-25 12:30:00,44.8,24.2,30.00,WSW,247,0.0,12.0,44,0.00,,,0.00,VWS V14.01,2013-02-25 17:30:00,
2013-02-25 12:35:00,44.9,23.8,30.00,NW,309,1.0,12.0,43,0.00,,,0.00,VWS V14.01,2013-02-25 17:35:00,
2013-02-25 12:40:00,45.1,24.5,30.00,NW,309,1.0,12.0,44,0.00,,,0.00,VWS V14.01,2013-02-25 17:40:00,
2013-02-25 12:45:00,45.4,24.2,30.00,WNW,302,3.0,12.0,43,0.00,,,0.00,VWS V14.01,2013-02-25 17:45:00,
2013-02-25 12:50:00,45.5,24.9,30.00,NNE,24,0.0,12.0,44,0.00,,,0.00,VWS V14.01,2013-02-25 17:50:00,
2013-02-25 12:55:00,45.5,24.3,30.00,NW,306,1.0,12.0,43,0.00,,,0.00,VWS V14.01,2013-02-25 17:55:00,
2013-02-25 13:00:00,45.5,24.3,30.00,West,259,2.0,12.0,43,0.00,,,0.00,VWS V14.01,2013-02-25 18:00:00,
2013-02-25 13:05:00,45.7,24.5,29.98,East,80,2.0,12.0,43,0.00,,,0.00,VWS V14.01,2013-02-25 18:05:00,
2013-02-25 13:10:00,45.7,23.9,29.98,North,9,1.0,12.0,42,0.00,,,0.00,VWS V14.01,2013-02-25 18:10:00,
2013-02-25 13:15:00,46.0,24.8,29.98,NW,307,1.0,12.0,43,0.00,,,0.00,VWS V14.01,2013-02-25 18:15:00,
2013-02-25 13:20:00,46.5,23.5,29.97,West,276,0.0,12.0,40,0.00,,,0.00,VWS V14.01,2013-02-25 18:20:00,
2013-02-25 13:25:00,47.3,23.6,29.97,NW,317,0.0,12.0,39,0.00,,,0.00,VWS V14.01,2013-02-25 18:25:00,
2013-02-25 13:30:00,47.6,23.9,29.97,WSW,247,2.0,12.0,39,0.00,,,0.00,VWS V14.01,2013-02-25 18:30:00,
2013-02-25 13:36:00,47.4,23.7,29.98,NE,40,0.0,12.0,39,0.00,,,0.00,VWS V14.01,2013-02-25 18:36:00,
2013-02-25 13:41:00,47.6,24.5,29.98,WNW,295,0.0,12.0,40,0.00,,,0.00,VWS V14.01,2013-02-25 18:41:00,
2013-02-25 13:46:00,48.2,25.0,29.98,WNW,296,0.0,12.0,40,0.00,,,0.00,VWS V14.01,2013-02-25 18:46:00,
2013-02-25 13:51:00,48.6,24.2,29.96,WSW,250,0.0,12.0,38,0.00,,,0.00,VWS V14.01,2013-02-25 18:51:00,
2013-02-25 13:56:00,49.4,23.6,29.96,NNW,344,5.0,12.0,36,0.00,,,0.00,VWS V14.01,2013-02-25 18:56:00,
2013-02-25 14:01:00,49.4,24.2,29.96,NNW,347,0.0,12.0,37,0.00,,,0.00,VWS V14.01,2013-02-25 19:01:00,
2013-02-25 14:06:00,49.6,23.8,29.96,ENE,60,0.0,12.0,36,0.00,,,0.00,VWS V14.01,2013-02-25 19:06:00,
2013-02-25 14:11:00,49.6,24.4,29.96,SSE,167,0.0,12.0,37,0.00,,,0.00,VWS V14.01,2013-02-25 19:11:00,
2013-02-25 14:16:00,50.1,24.2,29.96,NE,51,4.0,12.0,36,0.00,,,0.00,VWS V14.01,2013-02-25 19:16:00,
2013-02-25 14:21:00,50.4,24.5,29.94,WSW,248,1.0,12.0,36,0.00,,,0.00,VWS V14.01,2013-02-25 19:21:00,
2013-02-25 14:26:00,50.5,24.6,29.94,SW,222,1.0,12.0,36,0.00,,,0.00,VWS V14.01,2013-02-25 19:26:00,
2013-02-25 14:31:00,51.4,25.4,29.94,West,269,2.0,12.0,36,0.00,,,0.00,VWS V14.01,2013-02-25 19:31:00,
2013-02-25 14:36:00,51.6,24.2,29.94,NNE,19,5.0,12.0,34,0.00,,,0.00,VWS V14.01,2013-02-25 19:36:00,
2013-02-25 14:41:00,51.9,25.1,29.94,WNW,282,2.0,12.0,35,0.00,,,0.00,VWS V14.01,2013-02-25 19:41:00,
2013-02-25 14:47:00,52.3,26.2,29.94,NE,36,1.0,12.0,36,0.00,,,0.00,VWS V14.01,2013-02-25 19:47:00,
2013-02-25 14:52:00,52.8,25.2,29.94,ENE,64,3.0,12.0,34,0.00,,,0.00,VWS V14.01,2013-02-25 19:52:00,
2013-02-25 14:57:00,53.3,26.4,29.94,East,96,2.0,12.0,35,0.00,,,0.00,VWS V14.01,2013-02-25 19:57:00,
2013-02-25 15:02:00,53.6,25.9,29.93,West,265,3.0,12.0,34,0.00,,,0.00,VWS V14.01,2013-02-25 20:02:00,
2013-02-25 15:07:00,53.8,26.8,29.93,NNW,341,1.0,12.0,35,0.00,,,0.00,VWS V14.01,2013-02-25 20:07:00,
2013-02-25 15:12:00,54.2,26.5,29.93,North,355,1.0,12.0,34,0.00,,,0.00,VWS V14.01,2013-02-25 20:12:00,
2013-02-25 15:17:00,54.5,27.4,29.93,West,264,0.0,12.0,35,0.00,,,0.00,VWS V14.01,2013-02-25 20:17:00,
2013-02-25 15:22:00,53.3,26.4,29.93,East,100,0.0,12.0,35,0.00,,,0.00,VWS V14.01,2013-02-25 20:22:00,
2013-02-25 15:27:00,53.2,26.3,29.93,ESE,107,0.0,12.0,35,0.00,,,0.00,VWS V14.01,2013-02-25 20:27:00,
2013-02-25 15:32:00,53.6,28.0,29.93,NNW,330,0.0,12.0,37,0.00,,,0.00,VWS V14.01,2013-02-25 20:32:00,
2013-02-25 15:38:00,53.5,26.5,29.93,ESE,103,3.0,12.0,35,0.00,,,0.00,VWS V14.01,2013-02-25 20:38:00,
2013-02-25 15:43:00,52.8,27.9,29.93,ENE,62,1.0,12.0,38,0.00,,,0.00,VWS V14.01,2013-02-25 20:43:00,
2013-02-25 15:48:00,53.1,27.5,29.92,NE,51,0.0,12.0,37,0.00,,,0.00,VWS V14.01,2013-02-25 20:48:00,
2013-02-25 15:53:00,53.5,26.5,29.92,SSW,199,0.0,12.0,35,0.00,,,0.00,VWS V14.01,2013-02-25 20:53:00,
2013-02-25 15:58:00,53.8,27.5,29.92,NE,46,3.0,12.0,36,0.00,,,0.00,VWS V14.01,2013-02-25 20:58:00,
2013-02-25 16:03:00,53.5,27.2,29.91,NNE,18,2.0,12.0,36,0.00,,,0.00,VWS V14.01,2013-02-25 21:03:00,
2013-02-25 16:08:00,53.6,27.3,29.91,NW,316,0.0,12.0,36,0.00,,,0.00,VWS V14.01,2013-02-25 21:08:00,
2013-02-25 16:13:00,53.9,27.6,29.91,North,355,2.0,12.0,36,0.00,,,0.00,VWS V14.01,2013-02-25 21:13:00,
2013-02-25 16:18:00,54.7,28.3,29.91,WSW,245,3.0,12.0,36,0.00,,,0.00,VWS V14.01,2013-02-25 21:18:00,
2013-02-25 16:23:00,55.0,27.9,29.91,WSW,253,1.0,12.0,35,0.00,,,0.00,VWS V14.01,2013-02-25 21:23:00,
2013-02-25 16:28:00,55.1,28.6,29.91,WNW,284,0.0,12.0,36,0.00,,,0.00,VWS V14.01,2013-02-25 21:28:00,
2013-02-25 16:33:00,55.1,28.0,29.90,WNW,284,1.0,12.0,35,0.00,,,0.00,VWS V14.01,2013-02-25 21:33:00,
2013-02-25 16:38:00,55.4,28.2,29.90,West,268,2.0,12.0,35,0.00,,,0.00,VWS V14.01,2013-02-25 21:38:00,
2013-02-25 16:43:00,55.3,28.1,29.90,WNW,285,2.0,12.0,35,0.00,,,0.00,VWS V14.01,2013-02-25 21:43:00,
2013-02-25 16:49:00,54.5,29.4,29.90,NNW,328,3.0,12.0,38,0.00,,,0.00,VWS V14.01,2013-02-25 21:49:00,
2013-02-25 16:54:00,54.2,29.2,29.90,NNW,334,1.0,12.0,38,0.00,,,0.00,VWS V14.01,2013-02-25 21:54:00,
2013-02-25 16:59:00,53.9,28.2,29.90,NE,36,0.0,12.0,37,0.00,,,0.00,VWS V14.01,2013-02-25 21:59:00,
2013-02-25 17:04:00,53.9,28.2,29.90,NNE,12,2.0,12.0,37,0.00,,,0.00,VWS V14.01,2013-02-25 22:04:00,
2013-02-25 17:09:00,53.9,28.2,29.90,North,5,3.0,12.0,37,0.00,,,0.00,VWS V14.01,2013-02-25 22:09:00,
2013-02-25 17:14:00,53.8,28.8,29.90,WSW,258,0.0,12.0,38,0.00,,,0.00,VWS V14.01,2013-02-25 22:14:00,
2013-02-25 17:19:00,53.9,28.2,29.89,WSW,258,1.0,12.0,37,0.00,,,0.00,VWS V14.01,2013-02-25 22:19:00,
2013-02-25 17:24:00,53.9,28.9,29.89,WSW,258,0.0,12.0,38,0.00,,,0.00,VWS V14.01,2013-02-25 22:24:00,
2013-02-25 17:29:00,53.8,28.8,29.89,NNW,327,2.0,12.0,38,0.00,,,0.00,VWS V14.01,2013-02-25 22:29:00,
2013-02-25 17:34:00,53.6,29.9,29.89,West,278,3.0,12.0,40,0.00,,,0.00,VWS V14.01,2013-02-25 22:34:00,
2013-02-25 17:39:00,53.3,29.0,29.89,NW,317,4.0,12.0,39,0.00,,,0.00,VWS V14.01,2013-02-25 22:39:00,
2013-02-25 17:44:00,53.1,28.8,29.89,West,277,0.0,12.0,39,0.00,,,0.00,VWS V14.01,2013-02-25 22:44:00,
2013-02-25 17:49:00,52.9,28.6,29.89,NNE,32,2.0,12.0,39,0.00,,,0.00,VWS V14.01,2013-02-25 22:49:00,
2013-02-25 17:54:00,52.9,28.6,29.89,West,263,0.0,12.0,39,0.00,,,0.00,VWS V14.01,2013-02-25 22:54:00,
2013-02-25 17:59:00,52.8,29.2,29.89,West,269,0.0,12.0,40,0.00,,,0.00,VWS V14.01,2013-02-25 22:59:00,
2013-02-25 18:04:00,52.6,30.2,29.88,WSW,253,0.0,12.0,42,0.00,,,0.00,VWS V14.01,2013-02-25 23:04:00,
2013-02-25 18:09:00,52.2,29.8,29.88,WSW,253,0.0,12.0,42,0.00,,,0.00,VWS V14.01,2013-02-25 23:09:00,
2013-02-25 18:15:00,51.7,29.9,29.88,WSW,252,0.0,12.0,43,0.00,,,0.00,VWS V14.01,2013-02-25 23:15:00,
2013-02-25 18:20:00,51.1,29.4,29.88,WNW,287,2.0,12.0,43,0.00,,,0.00,VWS V14.01,2013-02-25 23:20:00,
2013-02-25 18:25:00,50.8,29.7,29.88,SW,227,2.0,12.0,44,0.00,,,0.00,VWS V14.01,2013-02-25 23:25:00,
2013-02-25 18:30:00,50.4,31.0,29.88,SW,227,0.0,12.0,47,0.00,,,0.00,VWS V14.01,2013-02-25 23:30:00,
2013-02-25 18:35:00,49.5,29.6,29.88,SW,227,0.0,12.0,46,0.00,,,0.00,VWS V14.01,2013-02-25 23:35:00,
2013-02-25 18:40:00,49.4,30.5,29.88,SW,227,0.0,12.0,48,0.00,,,0.00,VWS V14.01,2013-02-25 23:40:00,
2013-02-25 18:45:00,48.0,30.8,29.88,SW,227,0.0,12.0,51,0.00,,,0.00,VWS V14.01,2013-02-25 23:45:00,
2013-02-25 18:50:00,47.4,30.7,29.88,SW,227,0.0,12.0,52,0.00,,,0.00,VWS V14.01,2013-02-25 23:50:00,
2013-02-25 18:55:00,47.1,30.4,29.88,West,271,0.0,12.0,52,0.00,,,0.00,VWS V14.01,2013-02-25 23:55:00,
2013-02-25 19:00:00,46.8,30.1,29.88,West,271,0.0,12.0,52,0.00,,,0.00,VWS V14.01,2013-02-26 00:00:00,
2013-02-25 19:05:00,46.2,29.6,29.89,West,271,2.0,12.0,52,0.00,,,0.00,VWS V14.01,2013-02-26 00:05:00,
2013-02-25 19:10:00,46.2,29.6,29.89,West,271,0.0,12.0,52,0.00,,,0.00,VWS V14.01,2013-02-26 00:10:00,
2013-02-25 19:15:00,46.2,30.5,29.89,West,273,3.0,12.0,54,0.00,,,0.00,VWS V14.01,2013-02-26 00:15:00,
2013-02-25 19:20:00,46.2,30.0,29.88,West,274,0.0,12.0,53,0.00,,,0.00,VWS V14.01,2013-02-26 00:20:00,
2013-02-25 19:25:00,45.2,30.5,29.88,West,273,0.0,12.0,56,0.00,,,0.00,VWS V14.01,2013-02-26 00:25:00,
2013-02-25 19:31:00,44.9,30.2,29.88,West,273,0.0,12.0,56,0.00,,,0.00,VWS V14.01,2013-02-26 00:31:00,
2013-02-25 19:36:00,44.9,30.2,29.87,West,273,1.0,12.0,56,0.00,,,0.00,VWS V14.01,2013-02-26 00:36:00,
2013-02-25 19:41:00,44.8,30.1,29.87,NNW,328,0.0,12.0,56,0.00,,,0.00,VWS V14.01,2013-02-26 00:41:00,
2013-02-25 19:46:00,44.9,29.7,29.87,NNW,328,0.0,12.0,55,0.00,,,0.00,VWS V14.01,2013-02-26 00:46:00,
2013-02-25 19:51:00,44.6,30.3,29.87,WNW,282,0.0,12.0,57,0.00,,,0.00,VWS V14.01,2013-02-26 00:51:00,
2013-02-25 19:56:00,44.3,29.2,29.87,WNW,283,0.0,12.0,55,0.00,,,0.00,VWS V14.01,2013-02-26 00:56:00,
2013-02-25 20:01:00,44.2,30.4,29.87,WNW,287,0.0,12.0,58,0.00,,,0.00,VWS V14.01,2013-02-26 01:01:00,
2013-02-25 20:06:00,44.1,30.3,29.87,West,268,0.0,12.0,58,0.00,,,0.00,VWS V14.01,2013-02-26 01:06:00,
2013-02-25 20:11:00,43.9,29.2,29.87,West,268,0.0,12.0,56,0.00,,,0.00,VWS V14.01,2013-02-26 01:11:00,
2013-02-25 20:16:00,44.2,30.0,29.87,WSW,254,1.0,12.0,57,0.00,,,0.00,VWS V14.01,2013-02-26 01:16:00,
2013-02-25 20:21:00,44.2,30.4,29.87,North,349,0.0,12.0,58,0.00,,,0.00,VWS V14.01,2013-02-26 01:21:00,
2013-02-25 20:26:00,44.8,28.7,29.87,West,279,2.0,12.0,53,0.00,,,0.00,VWS V14.01,2013-02-26 01:26:00,
2013-02-25 20:31:00,45.7,28.1,29.87,North,355,0.0,12.0,50,0.00,,,0.00,VWS V14.01,2013-02-26 01:31:00,
2013-02-25 20:36:00,46.1,28.5,29.87,West,263,0.0,12.0,50,0.00,,,0.00,VWS V14.01,2013-02-26 01:36:00,
2013-02-25 20:41:00,46.4,28.3,29.87,West,266,2.0,12.0,49,0.00,,,0.00,VWS V14.01,2013-02-26 01:41:00,
2013-02-25 20:46:00,46.5,28.9,29.87,WNW,282,4.0,12.0,50,0.00,,,0.00,VWS V14.01,2013-02-26 01:46:00,
2013-02-25 20:51:00,46.5,28.9,29.88,NW,311,0.0,12.0,50,0.00,,,0.00,VWS V14.01,2013-02-26 01:51:00,
2013-02-25 20:57:00,46.5,28.9,29.88,SW,218,1.0,12.0,50,0.00,,,0.00,VWS V14.01,2013-02-26 01:57:00,
2013-02-25 21:02:00,46.4,28.8,29.88,SW,219,0.0,12.0,50,0.00,,,0.00,VWS V14.01,2013-02-26 02:02:00,
2013-02-25 21:07:00,46.2,28.6,29.87,WSW,242,4.0,12.0,50,0.00,,,0.00,VWS V14.01,2013-02-26 02:07:00,
2013-02-25 21:12:00,46.2,28.6,29.87,West,259,0.0,12.0,50,0.00,,,0.00,VWS V14.01,2013-02-26 02:12:00,
2013-02-25 21:17:00,46.1,29.0,29.88,West,275,4.0,12.0,51,0.00,,,0.00,VWS V14.01,2013-02-26 02:17:00,
2013-02-25 21:22:00,46.0,28.9,29.88,West,273,2.0,12.0,51,0.00,,,0.00,VWS V14.01,2013-02-26 02:22:00,
2013-02-25 21:27:00,45.8,28.2,29.88,WSW,255,3.0,12.0,50,0.00,,,0.00,VWS V14.01,2013-02-26 02:27:00,
2013-02-25 21:32:00,45.8,28.7,29.87,WSW,240,0.0,12.0,51,0.00,,,0.00,VWS V14.01,2013-02-26 02:32:00,
2013-02-25 21:37:00,45.7,28.6,29.87,West,265,2.0,12.0,51,0.00,,,0.00,VWS V14.01,2013-02-26 02:37:00,
2013-02-25 21:42:00,45.8,28.2,29.87,WNW,298,0.0,12.0,50,0.00,,,0.00,VWS V14.01,2013-02-26 02:42:00,
2013-02-25 21:47:00,45.8,28.7,29.88,WNW,298,0.0,12.0,51,0.00,,,0.00,VWS V14.01,2013-02-26 02:47:00,
2013-02-25 21:52:00,45.8,28.7,29.88,WSW,253,7.0,12.0,51,0.00,,,0.00,VWS V14.01,2013-02-26 02:52:00,
2013-02-25 21:57:00,45.7,29.1,29.88,NW,307,5.0,12.0,52,0.00,,,0.00,VWS V14.01,2013-02-26 02:57:00,
2013-02-25 22:02:00,45.5,29.4,29.88,WNW,288,1.0,12.0,53,0.00,,,0.00,VWS V14.01,2013-02-26 03:02:00,
2013-02-25 22:08:00,45.4,28.8,29.88,WSW,248,3.0,12.0,52,0.00,,,0.00,VWS V14.01,2013-02-26 03:08:00,
2013-02-25 22:13:00,45.2,29.6,29.88,NNW,348,4.0,12.0,54,0.00,,,0.00,VWS V14.01,2013-02-26 03:13:00,
2013-02-25 22:18:00,45.2,29.1,29.87,NW,325,2.0,12.0,53,0.00,,,0.00,VWS V14.01,2013-02-26 03:18:00,
2013-02-25 22:23:00,45.2,29.6,29.87,North,355,0.0,12.0,54,0.00,,,0.00,VWS V14.01,2013-02-26 03:23:00,
2013-02-25 22:28:00,45.2,29.6,29.87,North,355,2.0,12.0,54,0.00,,,0.00,VWS V14.01,2013-02-26 03:28:00,
2013-02-25 22:33:00,45.2,29.6,29.86,East,101,0.0,12.0,54,0.00,,,0.00,VWS V14.01,2013-02-26 03:33:00,
2013-02-25 22:38:00,45.1,29.5,29.86,West,271,4.0,12.0,54,0.00,,,0.00,VWS V14.01,2013-02-26 03:38:00,
2013-02-25 22:43:00,45.1,29.9,29.86,WSW,247,3.0,12.0,55,0.00,,,0.00,VWS V14.01,2013-02-26 03:43:00,
2013-02-25 22:48:00,45.1,29.9,29.84,WNW,302,2.0,12.0,55,0.00,,,0.00,VWS V14.01,2013-02-26 03:48:00,
2013-02-25 22:53:00,44.9,30.2,29.84,NW,316,0.0,12.0,56,0.00,,,0.00,VWS V14.01,2013-02-26 03:53:00,
2013-02-25 22:58:00,44.8,29.6,29.84,NW,325,4.0,12.0,55,0.00,,,0.00,VWS V14.01,2013-02-26 03:58:00,
2013-02-25 23:04:00,44.6,29.9,29.84,NNW,340,7.0,12.0,56,0.00,,,0.00,VWS V14.01,2013-02-26 04:04:00,
2013-02-25 23:09:00,44.6,29.9,29.84,NE,42,1.0,12.0,56,0.00,,,0.00,VWS V14.01,2013-02-26 04:09:00,
2013-02-25 23:14:00,44.6,29.9,29.84,WSW,258,6.0,12.0,56,0.00,,,0.00,VWS V14.01,2013-02-26 04:14:00,
2013-02-25 23:19:00,44.5,29.8,29.85,WNW,300,2.0,12.0,56,0.00,,,0.00,VWS V14.01,2013-02-26 04:19:00,
2013-02-25 23:24:00,44.5,29.8,29.85,West,271,5.0,12.0,56,0.00,,,0.00,VWS V14.01,2013-02-26 04:24:00,
2013-02-25 23:29:00,44.3,29.6,29.85,West,281,2.0,12.0,56,0.00,,,0.00,VWS V14.01,2013-02-26 04:29:00,
2013-02-25 23:34:00,44.3,30.0,29.84,NW,322,1.0,12.0,57,0.00,,,0.00,VWS V14.01,2013-02-26 04:34:00,
2013-02-25 23:39:00,44.3,29.6,29.84,WNW,286,3.0,12.0,56,0.00,,,0.00,VWS V14.01,2013-02-26 04:39:00,
2013-02-25 23:44:00,44.2,30.0,29.84,NNE,30,4.0,12.0,57,0.00,,,0.00,VWS V14.01,2013-02-26 04:44:00,
2013-02-25 23:50:00,44.1,29.9,29.85,West,269,3.0,12.0,57,0.00,,,0.00,VWS V14.01,2013-02-26 04:50:00,
2013-02-25 23:55:00,44.1,29.4,29.85,NNE,16,4.0,12.0,56,0.00,,,0.00,VWS V14.01,2013-02-26 04:55:00,